Madison, SD

10:16 AM CST on December 15, 2019 (GMT -0600)
Madison Municipal

Weather History for KMDS - November, 2019

Change the Weather History Date:

Thursday, November 21, 2019

  Actual Average Record
Temperature  
Mean Temperature 26 °F -  
Max Temperature 35 °F 34 °F 66 °F (2012)
Min Temperature 17 °F 19 °F 6 °F (2014)
Degree Days  
Heating Degree Days 39    
Moisture  
Dew Point 26 °F    
Average Humidity 99    
Maximum Humidity 100    
Minimum Humidity 86    
Precipitation  
Precipitation 0.01 in - - ()
Sea Level Pressure  
Sea Level Pressure 30.06 in    
Wind  
Wind Speed 18 mph ()    
Max Wind Speed 29 mph    
Max Gust Speed 37 mph    
Visibility 10.0 miles    
Events Rain    
Averages and records for this station are not official NWS values.
T = Trace of Precipitation, MM = Missing Value Source: Averaged Metar Reports

Daily Weather History Graph

Daily Weather History Graph

Search for Another Location

Airport or City:

Astronomy

Nov. 21, 2019 Rise Set
Actual Time 7:30 AM CST 4:57 PM CST
Civil Twilight 6:59 AM CST 5:28 PM CST
Nautical Twilight 6:23 AM CST 6:04 PM CST
Astronomical Twilight 5:49 AM CST 6:38 PM CST
Moon 1:12 AM CST (11/21) 2:40 PM CST (11/21)
Length of Visible Light 10h 29m
Length of Day
9h 26m
Waning Crescent, 29% of the Moon is Illuminated
Nov 21
Waning Crescent
Nov 26
New
Dec 4
First Quarter
Dec 11
Full
Dec 18
Last Quarter

Hourly Weather History & Observations

Time (CST) Temp. Windchill Dew Point Humidity Pressure Visibility Wind Dir Wind Speed Gust Speed Precip Events Conditions
12:15 AM 35.6 °F 24.5 °F 35.6 °F 100% 29.76 in 10.0 mi North 20.7 mph 27.6 mph N/A Rain Light Rain
12:35 AM 35.6 °F 24.2 °F 35.6 °F 100% 29.77 in 8.0 mi North 21.9 mph 29.9 mph N/A Rain Light Rain
12:55 AM 35.6 °F 24.2 °F 35.6 °F 100% 29.77 in 10.0 mi North 21.9 mph 34.5 mph N/A Rain Light Rain
1:35 AM 33.8 °F 21.9 °F 33.8 °F 100% 29.78 in 10.0 mi North 21.9 mph 32.2 mph N/A Rain Light Rain
1:55 AM 32.0 °F 18.9 °F 32.0 °F 100% 29.79 in 10.0 mi North 24.2 mph 32.2 mph N/A Rain Light Rain
2:15 AM 32.0 °F 18.4 °F 32.0 °F 100% 29.81 in 10.0 mi North 26.5 mph 32.2 mph N/A Rain Light Rain
2:35 AM 32.0 °F 18.1 °F 32.0 °F 100% 29.82 in 10.0 mi North 27.6 mph 32.2 mph N/A Rain Light Rain
2:55 AM 32.0 °F 18.9 °F 32.0 °F 100% 29.84 in 9.0 mi North 24.2 mph 36.8 mph N/A   Overcast
3:15 AM 32.0 °F 18.9 °F 32.0 °F 100% 29.84 in 10.0 mi North 24.2 mph 32.2 mph N/A   Overcast
3:35 AM 32.0 °F 19.8 °F 32.0 °F 100% 29.85 in 10.0 mi North 20.7 mph 33.4 mph N/A   Overcast
3:55 AM 32.0 °F 18.6 °F 32.0 °F 100% 29.86 in 10.0 mi North 25.3 mph 32.2 mph N/A   Overcast
4:15 AM 32.0 °F 18.4 °F 32.0 °F 100% 29.87 in 10.0 mi North 26.5 mph 33.4 mph N/A   Overcast
4:35 AM 32.0 °F 19.5 °F 32.0 °F 100% 29.88 in 10.0 mi North 21.9 mph 32.2 mph N/A Rain Light Rain
4:55 AM 32.0 °F 18.9 °F 32.0 °F 100% 29.88 in 10.0 mi North 24.2 mph 33.4 mph 0.01 in   Overcast
5:35 AM 32.0 °F 17.9 °F 32.0 °F 100% 29.91 in 10.0 mi NNW 28.8 mph 35.7 mph N/A   Overcast
5:55 AM 32.0 °F 18.6 °F 32.0 °F 100% 29.92 in 10.0 mi North 25.3 mph 33.4 mph N/A   Overcast
6:15 AM 30.2 °F 16.5 °F 30.2 °F 100% 29.93 in 10.0 mi NNW 24.2 mph 32.2 mph N/A   Overcast
6:35 AM 30.2 °F 17.4 °F 30.2 °F 100% 29.96 in 10.0 mi NNW 20.7 mph 29.9 mph N/A   Overcast
6:55 AM 30.2 °F 16.8 °F 30.2 °F 100% 29.98 in 10.0 mi NNW 23.0 mph 32.2 mph N/A   Overcast
7:15 AM 28.4 °F 14.4 °F 28.4 °F 100% 30.00 in 10.0 mi NNW 23.0 mph 31.1 mph N/A   Overcast
7:35 AM 28.4 °F 14.4 °F 28.4 °F 100% 30.00 in 10.0 mi NNW 23.0 mph 28.8 mph N/A   Overcast
7:55 AM 28.4 °F 14.1 °F 28.4 °F 100% 30.02 in 10.0 mi NNW 24.2 mph 31.1 mph N/A   Overcast
8:15 AM 28.4 °F 13.8 °F 28.4 °F 100% 30.03 in 10.0 mi NNW 25.3 mph 33.4 mph N/A   Overcast
8:35 AM 26.6 °F 12.7 °F 26.6 °F 100% 30.04 in 10.0 mi NNW 20.7 mph 27.6 mph N/A   Overcast
8:55 AM 26.6 °F 12.0 °F 26.6 °F 100% 30.06 in 10.0 mi NNW 23.0 mph 31.1 mph N/A   Overcast
9:15 AM 26.6 °F 12.4 °F 26.6 °F 100% 30.06 in 10.0 mi NNW 21.9 mph 32.2 mph N/A   Overcast
9:55 AM 26.6 °F 12.0 °F 26.6 °F 100% 30.08 in 10.0 mi NNW 23.0 mph 32.2 mph N/A   Overcast
10:15 AM 26.6 °F 11.7 °F 26.6 °F 100% 30.09 in 10.0 mi NNW 24.2 mph 29.9 mph N/A   Overcast
10:35 AM 26.6 °F 12.4 °F 26.6 °F 100% 30.09 in 10.0 mi NNW 21.9 mph 28.8 mph N/A   Overcast
10:55 AM 26.6 °F 12.7 °F 26.6 °F 100% 30.10 in 10.0 mi North 20.7 mph 28.8 mph N/A   Overcast
11:15 AM 26.6 °F 12.0 °F 26.6 °F 100% 30.10 in 10.0 mi North 23.0 mph 27.6 mph N/A   Overcast
11:35 AM 26.6 °F 13.1 °F 26.6 °F 100% 30.09 in 10.0 mi NNW 19.6 mph 25.3 mph N/A   Overcast
11:55 AM 26.6 °F 12.7 °F 26.6 °F 100% 30.10 in 10.0 mi NW 20.7 mph 28.8 mph N/A   Overcast
12:15 PM 24.8 °F 10.0 °F 24.8 °F 100% 30.10 in 10.0 mi NNW 21.9 mph 27.6 mph N/A   Overcast
12:55 PM 24.8 °F 10.7 °F 24.8 °F 100% 30.11 in 10.0 mi NNW 19.6 mph 26.5 mph N/A   Overcast
1:15 PM 24.8 °F 9.6 °F 24.8 °F 100% 30.11 in 10.0 mi NW 23.0 mph 28.8 mph N/A   Overcast
2:15 PM 24.8 °F 10.7 °F 24.8 °F 100% 30.13 in 10.0 mi NW 19.6 mph 27.6 mph N/A   Overcast
2:35 PM 24.8 °F 10.3 °F 24.8 °F 100% 30.13 in 10.0 mi NW 20.7 mph 25.3 mph N/A   Overcast
2:55 PM 24.8 °F 10.0 °F 23.0 °F 93% 30.14 in 10.0 mi NW 21.9 mph - N/A   Overcast
3:15 PM 24.8 °F 10.7 °F 23.0 °F 93% 30.14 in 10.0 mi NNW 19.6 mph 24.2 mph N/A   Overcast
3:35 PM 24.8 °F 11.9 °F 23.0 °F 93% 30.15 in 10.0 mi NNW 16.1 mph - N/A   Mostly Cloudy
3:55 PM 24.8 °F 11.9 °F 21.2 °F 86% 30.16 in 10.0 mi NW 16.1 mph - N/A   Mostly Cloudy
4:15 PM 24.8 °F 11.9 °F 23.0 °F 93% 30.16 in 10.0 mi NNW 16.1 mph 21.9 mph N/A   Partly Cloudy
4:35 PM 24.8 °F 11.1 °F 21.2 °F 86% 30.17 in 10.0 mi NNW 18.4 mph - N/A   Partly Cloudy
4:55 PM 23.0 °F 10.1 °F 21.2 °F 93% 30.18 in 10.0 mi NNW 15.0 mph 20.7 mph N/A   Clear
5:15 PM 23.0 °F 12.4 °F 23.0 °F 100% 30.18 in 10.0 mi NNW 10.4 mph 18.4 mph N/A   Clear
5:35 PM 23.0 °F 12.4 °F 23.0 °F 100% 30.18 in 10.0 mi NNW 10.4 mph - N/A   Clear
5:55 PM 23.0 °F 13.1 °F 23.0 °F 100% 30.18 in 10.0 mi NNW 9.2 mph - N/A   Clear
6:15 PM 21.2 °F 10.9 °F 21.2 °F 100% 30.19 in 10.0 mi NNW 9.2 mph - N/A   Clear
6:35 PM 21.2 °F 11.7 °F 21.2 °F 100% 30.19 in 10.0 mi NNW 8.1 mph - N/A   Clear
6:55 PM 19.4 °F 9.5 °F 19.4 °F 100% 30.19 in 10.0 mi NNW 8.1 mph - N/A   Clear
7:15 PM 21.2 °F 10.1 °F 21.2 °F 100% 30.19 in 10.0 mi NNW 10.4 mph - N/A   Clear
7:35 PM 19.4 °F 9.5 °F 19.4 °F 100% 30.20 in 10.0 mi NNW 8.1 mph - N/A   Clear
7:55 PM 19.4 °F 10.4 °F 19.4 °F 100% 30.20 in 10.0 mi NNW 6.9 mph - N/A   Clear
8:15 PM 19.4 °F 10.4 °F 19.4 °F 100% 30.21 in 10.0 mi NW 6.9 mph - N/A   Clear
8:35 PM 19.4 °F 11.5 °F 19.4 °F 100% 30.22 in 10.0 mi WNW 5.8 mph - N/A   Clear
8:55 PM 19.4 °F 12.8 °F 19.4 °F 100% 30.22 in 10.0 mi WNW 4.6 mph - N/A   Clear
9:15 PM 19.4 °F 14.3 °F 19.4 °F 100% 30.22 in 10.0 mi NW 3.5 mph - N/A   Clear
9:35 PM 19.4 °F 11.5 °F 19.4 °F 100% 30.22 in 10.0 mi NNW 5.8 mph - N/A   Clear
9:55 PM 17.6 °F 8.2 °F 17.6 °F 100% 30.22 in 10.0 mi North 6.9 mph - N/A   Clear
10:15 PM 17.6 °F 9.3 °F 17.6 °F 100% 30.22 in 10.0 mi North 5.8 mph - N/A   Clear
10:35 PM 17.6 °F 9.3 °F 17.6 °F 100% 30.21 in 10.0 mi NNW 5.8 mph - N/A   Clear
10:55 PM 17.6 °F 7.3 °F 17.6 °F 100% 30.21 in 10.0 mi North 8.1 mph - N/A   Clear
11:15 PM 17.6 °F 7.3 °F 17.6 °F 100% 30.21 in 10.0 mi North 8.1 mph - N/A   Clear
11:35 PM 17.6 °F 8.2 °F 17.6 °F 100% 30.22 in 10.0 mi NNW 6.9 mph - N/A   Clear
11:55 PM 17.6 °F 9.3 °F 17.6 °F 100% 30.22 in 10.0 mi North 5.8 mph - N/A   Clear